TimeEDT,TemperatureF,Dew PointF,Humidity,Sea Level PressureIn,VisibilityMPH,Wind Direction,Wind SpeedMPH,Gust SpeedMPH,PrecipitationIn,Events,Conditions,WindDirDegrees,DateUTC
12:15 AM,37.4,15.8,41,30.10,10.0,WNW,8.1,-,N/A,,Clear,290,2013-03-15 04:15:00
12:35 AM,35.6,15.8,44,30.09,10.0,Calm,Calm,-,N/A,,Clear,0,2013-03-15 04:35:00
12:55 AM,30.2,15.8,55,30.10,10.0,SSE,3.5,-,N/A,,Clear,150,2013-03-15 04:55:00
1:15 AM,32.0,15.8,51,30.10,10.0,Calm,Calm,-,N/A,,Clear,0,2013-03-15 05:15:00
1:35 AM,28.4,19.4,69,30.10,10.0,SW,4.6,-,N/A,,Clear,230,2013-03-15 05:35:00
1:55 AM,33.8,15.8,48,30.10,10.0,WSW,5.8,-,N/A,,Clear,250,2013-03-15 05:55:00
2:15 AM,33.8,15.8,48,30.09,10.0,WSW,3.5,-,N/A,,Clear,250,2013-03-15 06:15:00
2:35 AM,32.0,15.8,51,30.09,10.0,Calm,Calm,-,N/A,,Clear,0,2013-03-15 06:35:00
2:55 AM,28.4,17.6,64,30.09,10.0,Calm,Calm,-,N/A,,Clear,0,2013-03-15 06:55:00
3:15 AM,30.2,17.6,60,30.08,10.0,Calm,Calm,-,N/A,,Clear,0,2013-03-15 07:15:00
3:35 AM,26.6,17.6,69,30.08,10.0,Calm,Calm,-,N/A,,Clear,0,2013-03-15 07:35:00
3:55 AM,26.6,17.6,69,30.07,10.0,WSW,3.5,-,N/A,,Clear,250,2013-03-15 07:55:00
4:15 AM,28.4,15.8,59,30.08,10.0,West,3.5,-,N/A,,Clear,260,2013-03-15 08:15:00
4:35 AM,24.8,15.8,69,30.08,10.0,Calm,Calm,-,N/A,,Clear,0,2013-03-15 08:35:00
4:55 AM,24.8,15.8,69,30.07,10.0,Calm,Calm,-,N/A,,Clear,0,2013-03-15 08:55:00
5:15 AM,24.8,15.8,69,30.07,10.0,Calm,Calm,-,N/A,,Clear,0,2013-03-15 09:15:00
5:35 AM,24.8,15.8,69,30.08,10.0,SW,3.5,-,N/A,,Clear,220,2013-03-15 09:35:00
5:55 AM,24.8,17.6,74,30.08,10.0,Calm,Calm,-,N/A,,Clear,0,2013-03-15 09:55:00
6:15 AM,28.4,17.6,64,30.08,10.0,SSW,5.8,-,N/A,,Clear,210,2013-03-15 10:15:00
6:35 AM,30.2,15.8,55,30.08,10.0,SW,4.6,-,N/A,,Clear,230,2013-03-15 10:35:00
6:55 AM,32.0,15.8,51,30.07,10.0,SW,5.8,-,N/A,,Clear,230,2013-03-15 10:55:00
7:15 AM,33.8,15.8,48,30.08,10.0,SW,4.6,-,N/A,,Clear,230,2013-03-15 11:15:00
7:35 AM,32.0,15.8,51,30.08,10.0,SW,3.5,-,N/A,,Clear,230,2013-03-15 11:35:00
7:55 AM,33.8,15.8,48,30.07,10.0,SW,4.6,-,N/A,,Clear,220,2013-03-15 11:55:00
8:15 AM,33.8,15.8,48,30.07,10.0,SW,4.6,-,N/A,,Clear,230,2013-03-15 12:15:00
8:35 AM,33.8,17.6,52,30.07,10.0,Calm,Calm,-,N/A,,Clear,0,2013-03-15 12:35:00
8:55 AM,33.8,17.6,52,30.07,10.0,SSW,4.6,-,N/A,,Scattered Clouds,210,2013-03-15 12:55:00
9:15 AM,35.6,17.6,48,30.07,10.0,WSW,4.6,-,N/A,,Clear,240,2013-03-15 13:15:00
9:35 AM,35.6,17.6,48,30.07,10.0,SSW,3.5,-,N/A,,Clear,210,2013-03-15 13:35:00
9:55 AM,35.6,17.6,48,30.06,10.0,SW,3.5,-,N/A,,Clear,220,2013-03-15 13:55:00
10:15 AM,37.4,19.4,48,30.05,10.0,SW,6.9,-,N/A,,Clear,220,2013-03-15 14:15:00
10:35 AM,41.0,19.4,42,30.04,10.0,SW,9.2,-,N/A,,Clear,230,2013-03-15 14:35:00
11:55 AM,48.2,19.4,32,30.01,10.0,SW,9.2,16.1,N/A,,Clear,230,2013-03-15 15:55:00
12:15 PM,50.0,21.2,32,30.00,10.0,SW,11.5,18.4,N/A,,Clear,220,2013-03-15 16:15:00
12:35 PM,51.8,21.2,30,29.98,10.0,WSW,10.4,20.7,N/A,,Clear,250,2013-03-15 16:35:00
12:55 PM,51.8,21.2,30,29.97,10.0,WSW,8.1,19.6,N/A,,Clear,250,2013-03-15 16:55:00
1:15 PM,53.6,23.0,30,29.96,10.0,SSW,10.4,19.6,N/A,,Clear,210,2013-03-15 17:15:00
1:35 PM,53.6,23.0,30,29.95,10.0,SSW,15.0,19.6,N/A,,Clear,200,2013-03-15 17:35:00
1:55 PM,53.6,24.8,33,29.93,10.0,SW,6.9,20.7,N/A,,Clear,220,2013-03-15 17:55:00
2:15 PM,53.6,24.8,33,29.92,10.0,SW,9.2,20.7,N/A,,Clear,220,2013-03-15 18:15:00
2:35 PM,55.4,26.6,33,29.90,10.0,SSW,10.4,18.4,N/A,,Clear,210,2013-03-15 18:35:00
2:55 PM,57.2,26.6,31,29.88,10.0,WSW,9.2,20.7,N/A,,Clear,240,2013-03-15 18:55:00
3:15 PM,57.2,28.4,33,29.87,10.0,West,15.0,20.7,N/A,,Clear,260,2013-03-15 19:15:00
3:35 PM,59.0,28.4,31,29.86,10.0,SW,10.4,18.4,N/A,,Clear,220,2013-03-15 19:35:00
3:55 PM,57.2,28.4,33,29.85,10.0,SW,5.8,-,N/A,,Clear,220,2013-03-15 19:55:00
4:15 PM,57.2,28.4,33,29.84,10.0,WSW,10.4,20.7,N/A,,Clear,240,2013-03-15 20:15:00
4:35 PM,57.2,30.2,36,29.84,10.0,SW,12.7,20.7,N/A,,Clear,220,2013-03-15 20:35:00
4:55 PM,57.2,30.2,36,29.83,10.0,SW,8.1,16.1,N/A,,Clear,230,2013-03-15 20:55:00
5:15 PM,57.2,30.2,36,29.82,10.0,SSW,4.6,-,N/A,,Clear,210,2013-03-15 21:15:00
5:35 PM,57.2,30.2,36,29.82,10.0,SSW,5.8,-,N/A,,Clear,210,2013-03-15 21:35:00
5:55 PM,57.2,30.2,36,29.81,10.0,SSW,6.9,-,N/A,,Clear,200,2013-03-15 21:55:00
6:15 PM,57.2,30.2,36,29.81,10.0,SSW,9.2,-,N/A,,Clear,200,2013-03-15 22:15:00
6:35 PM,57.2,30.2,36,29.80,10.0,SSW,6.9,-,N/A,,Clear,200,2013-03-15 22:35:00
7:15 PM,55.4,30.2,38,29.80,10.0,South,6.9,-,N/A,,Clear,180,2013-03-15 23:15:00
7:35 PM,55.4,30.2,38,29.80,10.0,SSW,3.5,-,N/A,,Clear,200,2013-03-15 23:35:00
7:55 PM,53.6,30.2,41,29.80,10.0,South,3.5,-,N/A,,Clear,190,2013-03-15 23:55:00
8:15 PM,53.6,30.2,41,29.81,10.0,South,3.5,-,N/A,,Clear,190,2013-03-16 00:15:00
8:35 PM,53.6,30.2,41,29.80,10.0,SSW,4.6,-,N/A,,Clear,200,2013-03-16 00:35:00
8:55 PM,53.6,30.2,41,29.80,10.0,Calm,Calm,-,N/A,,Clear,0,2013-03-16 00:55:00
9:15 PM,51.8,32.0,47,29.80,10.0,Calm,Calm,-,N/A,,Clear,0,2013-03-16 01:15:00
9:35 PM,51.8,30.2,44,29.80,10.0,Calm,Calm,-,N/A,,Clear,0,2013-03-16 01:35:00
9:55 PM,46.4,32.0,57,29.80,10.0,Calm,Calm,-,N/A,,Clear,0,2013-03-16 01:55:00
10:15 PM,48.2,32.0,54,29.81,10.0,SW,3.5,-,N/A,,Clear,220,2013-03-16 02:15:00
10:35 PM,46.4,32.0,57,29.81,10.0,SW,3.5,-,N/A,,Clear,230,2013-03-16 02:35:00
10:55 PM,48.2,32.0,54,29.81,10.0,SW,4.6,-,N/A,,Clear,230,2013-03-16 02:55:00
11:15 PM,50.0,32.0,50,29.81,10.0,WSW,4.6,-,N/A,,Clear,240,2013-03-16 03:15:00
11:35 PM,48.2,33.8,58,29.81,10.0,WSW,5.8,-,N/A,,Clear,240,2013-03-16 03:35:00
11:55 PM,50.0,33.8,54,29.80,10.0,WSW,4.6,-,N/A,,Clear,240,2013-03-16 03:55:00